THY8RB LTAC-LTFM

Flight info

Callsign THY8RB
Flight time 0h 54m
Altitude 28000
Route YAVRU A4 ERSEN
Aircraft A320/M-SDE3FGHIRWY/LB1

Departure

Time 2026-05-04 23:01
Airport Esenboğa International Airport (LTAC)

Arrival

Time 2026-05-04 23:56
Airport İstanbul Airport (LTFM)
Time Latitude Longitude Altitude Speed Heading
2026-05-04 22:20 40.11353 32.98809 3113 ft 0 kts 126°
2026-05-04 22:45 40.11353 32.98808 3113 ft 1 kts 126°
2026-05-04 22:45 40.11382 32.98754 3113 ft 4 kts 123°
2026-05-04 22:45 40.11393 32.98732 3113 ft 1 kts 123°
2026-05-04 22:46 40.11395 32.98729 3113 ft 0 kts 123°
2026-05-04 22:51 40.11392 32.98741 3113 ft 2 kts 97°
2026-05-04 22:52 40.11403 32.98763 3113 ft 4 kts 48°
2026-05-04 22:52 40.11430 32.98785 3113 ft 6 kts 29°
2026-05-04 22:52 40.11468 32.98817 3113 ft 7 kts 35°
2026-05-04 22:52 40.11513 32.98865 3113 ft 9 kts 42°
2026-05-04 22:53 40.11570 32.98924 3113 ft 11 kts 35°
2026-05-04 22:53 40.11643 32.98918 3113 ft 10 kts 320°
2026-05-04 22:53 40.11705 32.98905 3113 ft 11 kts 34°
2026-05-04 22:53 40.11772 32.98972 3113 ft 13 kts 36°
2026-05-04 22:54 40.11851 32.99046 3114 ft 15 kts 36°
2026-05-04 22:54 40.11939 32.99130 3114 ft 17 kts 36°
2026-05-04 22:54 40.12036 32.99223 3116 ft 18 kts 36°
2026-05-04 22:54 40.12138 32.99322 3117 ft 19 kts 36°
2026-05-04 22:55 40.12249 32.99428 3118 ft 20 kts 36°
2026-05-04 22:55 40.12357 32.99530 3119 ft 20 kts 36°
2026-05-04 22:55 40.12470 32.99639 3121 ft 21 kts 37°
2026-05-04 22:55 40.12589 32.99752 3123 ft 22 kts 36°
2026-05-04 22:56 40.12716 32.99873 3123 ft 23 kts 36°
2026-05-04 22:56 40.12850 33.00001 3122 ft 24 kts 36°
2026-05-04 22:56 40.12986 33.00132 3124 ft 24 kts 37°
2026-05-04 22:56 40.13121 33.00263 3124 ft 24 kts 35°
2026-05-04 22:57 40.13262 33.00394 3128 ft 25 kts 36°
2026-05-04 22:57 40.13403 33.00530 3130 ft 26 kts 36°
2026-05-04 22:57 40.13548 33.00668 3132 ft 26 kts 36°
2026-05-04 22:57 40.13692 33.00806 3133 ft 27 kts 37°
2026-05-04 22:58 40.13840 33.00948 3134 ft 24 kts 35°
2026-05-04 22:58 40.13960 33.01060 3136 ft 17 kts 31°
2026-05-04 22:58 40.14056 33.01058 3136 ft 7 kts 331°
2026-05-04 22:58 40.14067 33.01048 3136 ft 1 kts 323°
2026-05-04 22:59 40.14074 33.01039 3136 ft 3 kts 315°
2026-05-04 22:59 40.14090 33.01011 3136 ft 5 kts 301°
2026-05-04 22:59 40.14106 33.00956 3136 ft 8 kts 290°
2026-05-04 22:59 40.14143 33.00873 3136 ft 13 kts 307°
2026-05-04 23:00 40.14208 33.00754 3136 ft 19 kts 292°
2026-05-04 23:00 40.14163 33.00645 3135 ft 0 kts 217°
2026-05-04 23:00 40.14132 33.00615 3135 ft 26 kts 216°
2026-05-04 23:01 40.13785 33.00283 3132 ft 94 kts 216°
2026-05-04 23:01 40.13109 32.99636 3122 ft 145 kts 216°
2026-05-04 23:01 40.12180 32.98763 3238 ft 177 kts 215°
2026-05-04 23:01 40.11122 32.97821 3727 ft 192 kts 213°
2026-05-04 23:02 40.09956 32.96834 4312 ft 209 kts 213°
2026-05-04 23:02 40.08665 32.95776 4836 ft 227 kts 213°
2026-05-04 23:02 40.07305 32.94556 5351 ft 245 kts 219°
2026-05-04 23:02 40.05934 32.93171 6089 ft 253 kts 220°
2026-05-04 23:03 40.04528 32.91729 6851 ft 260 kts 219°
2026-05-04 23:03 40.03091 32.90268 7683 ft 263 kts 221°
2026-05-04 23:03 40.01982 32.88385 8494 ft 265 kts 252°
2026-05-04 23:03 40.01847 32.85986 9051 ft 276 kts 286°
2026-05-04 23:04 40.02316 32.84433 9398 ft 282 kts 300°
2026-05-04 23:04 40.03407 32.82266 10101 ft 289 kts 309°
2026-05-04 23:04 40.04718 32.80143 10372 ft 312 kts 311°
2026-05-04 23:04 40.06155 32.77935 10862 ft 323 kts 311°
2026-05-04 23:05 40.07611 32.75657 11545 ft 329 kts 310°
2026-05-04 23:05 40.09055 32.73309 12263 ft 334 kts 310°
2026-05-04 23:05 40.10486 32.70897 12987 ft 338 kts 309°
2026-05-04 23:05 40.11912 32.68427 13668 ft 343 kts 308°
2026-05-04 23:06 40.13339 32.65915 14233 ft 346 kts 308°
2026-05-04 23:06 40.14775 32.63367 14829 ft 350 kts 308°
2026-05-04 23:06 40.16231 32.60782 15432 ft 355 kts 308°
2026-05-04 23:06 40.17704 32.58169 15866 ft 359 kts 308°
2026-05-04 23:07 40.19194 32.55539 15964 ft 360 kts 308°
2026-05-04 23:07 40.20742 32.52972 15969 ft 358 kts 315°
2026-05-04 23:07 40.22533 32.50724 15964 ft 357 kts 319°
2026-05-04 23:07 40.24350 32.48501 15969 ft 357 kts 319°
2026-05-04 23:08 40.26159 32.46278 15967 ft 357 kts 319°
2026-05-04 23:08 40.27967 32.44047 15961 ft 356 kts 319°
2026-05-04 23:08 40.29765 32.41820 15966 ft 356 kts 319°
2026-05-04 23:08 40.31562 32.39593 15972 ft 356 kts 319°
2026-05-04 23:09 40.33356 32.37367 15974 ft 355 kts 319°
2026-05-04 23:09 40.35134 32.35162 15968 ft 355 kts 319°
2026-05-04 23:09 40.36927 32.32936 15974 ft 355 kts 319°
2026-05-04 23:09 40.38724 32.30708 15972 ft 355 kts 319°
2026-05-04 23:10 40.40521 32.28482 15961 ft 356 kts 319°
2026-05-04 23:10 40.42338 32.26227 16372 ft 362 kts 319°
2026-05-04 23:10 40.44167 32.23957 17080 ft 363 kts 319°
2026-05-04 23:10 40.45980 32.21636 17731 ft 367 kts 314°
2026-05-04 23:11 40.47506 32.18922 18349 ft 373 kts 302°
2026-05-04 23:11 40.48620 32.15818 18911 ft 378 kts 293°
2026-05-04 23:11 40.49565 32.12593 19487 ft 380 kts 294°
2026-05-04 23:11 40.50524 32.09351 20085 ft 382 kts 294°
2026-05-04 23:12 40.51490 32.06094 20682 ft 384 kts 295°
2026-05-04 23:12 40.52464 32.02815 21253 ft 386 kts 295°
2026-05-04 23:12 40.53440 31.99522 21803 ft 387 kts 297°
2026-05-04 23:12 40.54417 31.96221 22417 ft 387 kts 298°
2026-05-04 23:13 40.55392 31.92924 22987 ft 388 kts 298°
2026-05-04 23:13 40.56371 31.89608 23530 ft 390 kts 298°
2026-05-04 23:13 40.57357 31.86267 23994 ft 392 kts 299°
2026-05-04 23:13 40.58341 31.82908 24420 ft 395 kts 298°
2026-05-04 23:14 40.59273 31.79487 24835 ft 400 kts 297°
2026-05-04 23:14 40.60149 31.76001 25252 ft 403 kts 296°
2026-05-04 23:14 40.60998 31.72467 25595 ft 406 kts 296°
2026-05-04 23:14 40.61842 31.68903 25991 ft 409 kts 296°
2026-05-04 23:15 40.62695 31.65321 26393 ft 411 kts 296°
2026-05-04 23:15 40.63564 31.61719 26791 ft 413 kts 296°
2026-05-04 23:15 40.64447 31.58107 27206 ft 416 kts 296°
2026-05-04 23:15 40.65343 31.54479 27623 ft 418 kts 297°
2026-05-04 23:16 40.66246 31.50837 27953 ft 420 kts 297°
2026-05-04 23:16 40.67147 31.47182 28012 ft 418 kts 297°
2026-05-04 23:16 40.68922 31.39917 28018 ft 415 kts 296°
2026-05-04 23:17 40.70683 31.32686 28020 ft 415 kts 296°
2026-05-04 23:17 40.72441 31.25445 28020 ft 415 kts 296°
2026-05-04 23:18 40.74201 31.18205 28015 ft 414 kts 296°
2026-05-04 23:18 40.75949 31.10986 27826 ft 409 kts 296°
2026-05-04 23:19 40.76799 31.07444 27541 ft 401 kts 296°
2026-05-04 23:19 40.77636 31.03950 27291 ft 398 kts 296°
2026-05-04 23:19 40.78470 31.00480 27062 ft 396 kts 296°
2026-05-04 23:19 40.79303 30.97025 27006 ft 395 kts 296°
2026-05-04 23:20 40.80134 30.93571 27024 ft 396 kts 296°
2026-05-04 23:20 40.80965 30.90109 27020 ft 395 kts 296°
2026-05-04 23:20 40.81795 30.86647 27021 ft 395 kts 296°
2026-05-04 23:20 40.82624 30.83186 27021 ft 396 kts 296°
2026-05-04 23:21 40.83449 30.79724 27021 ft 396 kts 296°
2026-05-04 23:21 40.84276 30.76248 27021 ft 396 kts 296°
2026-05-04 23:21 40.85099 30.72781 27021 ft 396 kts 296°
2026-05-04 23:21 40.85913 30.69336 26904 ft 396 kts 296°
2026-05-04 23:22 40.86622 30.65813 26647 ft 401 kts 288°
2026-05-04 23:22 40.86999 30.62141 26393 ft 403 kts 285°
2026-05-04 23:22 40.87351 30.58471 26086 ft 402 kts 285°
2026-05-04 23:22 40.87706 30.54815 25668 ft 400 kts 285°
2026-05-04 23:23 40.88063 30.51180 25225 ft 397 kts 286°
2026-05-04 23:23 40.88670 30.47682 24851 ft 385 kts 297°
2026-05-04 23:23 40.89724 30.44501 24462 ft 373 kts 308°
2026-05-04 23:23 40.91155 30.41703 24081 ft 362 kts 317°
2026-05-04 23:24 40.92815 30.39230 23712 ft 359 kts 320°
2026-05-04 23:24 40.94479 30.36770 23291 ft 358 kts 319°
2026-05-04 23:24 40.96127 30.34318 22914 ft 357 kts 319°
2026-05-04 23:24 40.97768 30.31869 22541 ft 354 kts 319°
2026-05-04 23:25 40.99400 30.29433 22180 ft 352 kts 319°
2026-05-04 23:25 41.01022 30.27016 21771 ft 350 kts 319°
2026-05-04 23:25 41.02637 30.24603 21398 ft 349 kts 319°
2026-05-04 23:25 41.04240 30.22210 21012 ft 347 kts 318°
2026-05-04 23:26 41.05836 30.19821 20626 ft 346 kts 316°
2026-05-04 23:26 41.07060 30.17056 20273 ft 357 kts 293°
2026-05-04 23:26 41.07269 30.13751 19951 ft 369 kts 266°
2026-05-04 23:26 41.06353 30.10565 19635 ft 376 kts 238°
2026-05-04 23:27 41.04632 30.07955 19312 ft 376 kts 227°
2026-05-04 23:27 41.02702 30.05637 19011 ft 373 kts 222°
2026-05-04 23:27 41.00702 30.03476 18704 ft 369 kts 220°
2026-05-04 23:27 40.98701 30.01374 18410 ft 366 kts 220°
2026-05-04 23:28 40.96738 29.99272 18319 ft 361 kts 221°
2026-05-04 23:28 40.94812 29.97149 17789 ft 360 kts 222°
2026-05-04 23:28 40.92919 29.95002 17139 ft 355 kts 223°
2026-05-04 23:28 40.91073 29.92870 16792 ft 351 kts 223°
2026-05-04 23:29 40.89321 29.90639 16453 ft 348 kts 233°
2026-05-04 23:29 40.87994 29.88008 16109 ft 341 kts 247°
2026-05-04 23:29 40.87158 29.85121 15699 ft 335 kts 260°
2026-05-04 23:29 40.86829 29.82098 15290 ft 329 kts 274°
2026-05-04 23:30 40.86806 29.79094 14906 ft 328 kts 274°
2026-05-04 23:30 40.86769 29.76101 14649 ft 324 kts 274°
2026-05-04 23:30 40.86726 29.73140 14187 ft 320 kts 274°
2026-05-04 23:30 40.86682 29.70213 13602 ft 316 kts 273°
2026-05-04 23:31 40.86640 29.67329 13183 ft 312 kts 274°
2026-05-04 23:31 40.86623 29.64470 12775 ft 309 kts 278°
2026-05-04 23:31 40.86878 29.61689 12347 ft 303 kts 282°
2026-05-04 23:31 40.87168 29.58944 11949 ft 301 kts 282°
2026-05-04 23:32 40.87457 29.56198 11544 ft 303 kts 282°
2026-05-04 23:32 40.87743 29.53454 11258 ft 298 kts 283°
2026-05-04 23:32 40.88105 29.50817 11128 ft 284 kts 295°
2026-05-04 23:32 40.89059 29.48660 11006 ft 265 kts 318°
2026-05-04 23:33 40.90484 29.47280 10978 ft 249 kts 339°
2026-05-04 23:33 40.92138 29.46718 10982 ft 245 kts 358°
2026-05-04 23:33 40.93847 29.46606 10982 ft 246 kts 359°
2026-05-04 23:33 40.95559 29.46497 10979 ft 246 kts 359°
2026-05-04 23:34 40.97266 29.46360 10980 ft 246 kts 354°
2026-05-04 23:34 40.98929 29.45783 10984 ft 248 kts 345°
2026-05-04 23:34 41.00570 29.45074 10982 ft 248 kts 345°
2026-05-04 23:34 41.02198 29.44378 10984 ft 248 kts 345°
2026-05-04 23:35 41.03843 29.43680 10985 ft 249 kts 345°
2026-05-04 23:35 41.05490 29.42979 10980 ft 249 kts 344°
2026-05-04 23:35 41.07057 29.41979 10982 ft 253 kts 331°
2026-05-04 23:35 41.08533 29.40708 10986 ft 253 kts 331°
2026-05-04 23:36 41.10013 29.39438 10983 ft 253 kts 332°
2026-05-04 23:36 41.11512 29.38155 10984 ft 253 kts 332°
2026-05-04 23:36 41.12992 29.36890 10985 ft 254 kts 331°
2026-05-04 23:36 41.14383 29.35433 10985 ft 258 kts 318°
2026-05-04 23:37 41.15591 29.33662 10986 ft 259 kts 317°
2026-05-04 23:37 41.16781 29.31908 10967 ft 259 kts 317°
2026-05-04 23:37 41.17825 29.29954 10979 ft 266 kts 298°
2026-05-04 23:37 41.18110 29.27482 10986 ft 281 kts 268°
2026-05-04 23:38 41.17420 29.25008 10785 ft 298 kts 237°
2026-05-04 23:38 41.15850 29.23111 10450 ft 303 kts 217°
2026-05-04 23:38 41.14097 29.21500 10027 ft 308 kts 215°
2026-05-04 23:38 41.12325 29.19945 9660 ft 310 kts 215°
2026-05-04 23:39 41.10527 29.18379 9305 ft 308 kts 215°
2026-05-04 23:39 41.08743 29.16814 9003 ft 306 kts 216°
2026-05-04 23:39 41.06980 29.15250 8705 ft 304 kts 216°
2026-05-04 23:39 41.05232 29.13685 8410 ft 302 kts 217°
2026-05-04 23:40 41.03498 29.12122 8109 ft 301 kts 217°
2026-05-04 23:40 41.01774 29.10562 7814 ft 299 kts 217°
2026-05-04 23:40 41.00059 29.09011 7519 ft 297 kts 217°
2026-05-04 23:40 40.98365 29.07479 7216 ft 290 kts 217°
2026-05-04 23:41 40.96731 29.06002 6950 ft 279 kts 218°
2026-05-04 23:41 40.95155 29.04580 6685 ft 269 kts 218°
2026-05-04 23:41 40.93635 29.03208 6423 ft 259 kts 218°
2026-05-04 23:41 40.92218 29.01797 6154 ft 251 kts 230°
2026-05-04 23:42 40.91160 29.00028 5931 ft 241 kts 248°
2026-05-04 23:42 40.90526 28.98049 5893 ft 224 kts 263°
2026-05-04 23:42 40.90126 28.96109 5841 ft 216 kts 263°
2026-05-04 23:42 40.89727 28.94193 5729 ft 218 kts 262°
2026-05-04 23:43 40.89326 28.92289 5488 ft 210 kts 262°
2026-05-04 23:43 40.88941 28.90481 5329 ft 198 kts 262°
2026-05-04 23:43 40.88577 28.88775 5179 ft 187 kts 262°
2026-05-04 23:43 40.88234 28.87168 5091 ft 176 kts 263°
2026-05-04 23:44 40.87910 28.85648 5007 ft 169 kts 263°
2026-05-04 23:44 40.87627 28.84165 5010 ft 164 kts 272°
2026-05-04 23:44 40.87643 28.82705 5007 ft 155 kts 290°
2026-05-04 23:44 40.87964 28.81382 5010 ft 148 kts 307°
2026-05-04 23:45 40.88520 28.80283 5009 ft 141 kts 321°
2026-05-04 23:45 40.89237 28.79462 5009 ft 136 kts 335°
2026-05-04 23:45 40.89796 28.79060 5009 ft 135 kts 341°
2026-05-04 23:45 40.90937 28.78338 5021 ft 138 kts 340°
2026-05-04 23:46 40.91793 28.77789 5028 ft 137 kts 340°
2026-05-04 23:46 40.92649 28.77239 5015 ft 137 kts 339°
2026-05-04 23:46 40.93212 28.76823 5007 ft 137 kts 336°
2026-05-04 23:46 40.94031 28.76178 5008 ft 136 kts 336°
2026-05-04 23:47 40.94833 28.75541 5007 ft 136 kts 336°
2026-05-04 23:47 40.95922 28.74681 5009 ft 136 kts 336°
2026-05-04 23:47 40.96460 28.74255 5008 ft 136 kts 336°
2026-05-04 23:47 40.97285 28.73647 5007 ft 134 kts 344°
2026-05-04 23:48 40.98195 28.73476 5020 ft 135 kts 358°
2026-05-04 23:48 40.99142 28.73379 5013 ft 137 kts 359°
2026-05-04 23:48 41.00094 28.73320 5008 ft 137 kts
2026-05-04 23:48 41.01050 28.73281 5008 ft 138 kts
2026-05-04 23:49 41.02008 28.73253 4991 ft 138 kts
2026-05-04 23:49 41.02963 28.73230 4885 ft 138 kts
2026-05-04 23:49 41.03920 28.73209 4726 ft 137 kts
2026-05-04 23:49 41.04875 28.73190 4548 ft 137 kts
2026-05-04 23:50 41.05825 28.73171 4360 ft 136 kts
2026-05-04 23:50 41.06770 28.73152 4180 ft 136 kts
2026-05-04 23:50 41.07713 28.73134 3995 ft 136 kts
2026-05-04 23:50 41.08654 28.73116 3812 ft 135 kts
2026-05-04 23:51 41.09591 28.73097 3627 ft 135 kts
2026-05-04 23:51 41.10527 28.73079 3447 ft 134 kts
2026-05-04 23:51 41.11463 28.73061 3264 ft 134 kts
2026-05-04 23:51 41.12394 28.73043 3058 ft 134 kts
2026-05-04 23:52 41.13322 28.73025 2874 ft 133 kts
2026-05-04 23:52 41.14250 28.73007 2703 ft 133 kts 360°
2026-05-04 23:52 41.15175 28.72990 2511 ft 133 kts 359°
2026-05-04 23:52 41.16096 28.72972 2333 ft 132 kts 359°
2026-05-04 23:53 41.17014 28.72954 2160 ft 132 kts 359°
2026-05-04 23:53 41.17932 28.72936 1969 ft 132 kts 359°
2026-05-04 23:53 41.18850 28.72918 1788 ft 131 kts 358°
2026-05-04 23:53 41.19762 28.72901 1616 ft 131 kts 359°
2026-05-04 23:54 41.20672 28.72883 1430 ft 131 kts 358°
2026-05-04 23:54 41.21572 28.72866 1249 ft 132 kts 358°
2026-05-04 23:54 41.22504 28.72848 1069 ft 133 kts 358°
2026-05-04 23:54 41.23421 28.72830 896 ft 134 kts 357°
2026-05-04 23:55 41.24352 28.72812 722 ft 134 kts 357°
2026-05-04 23:55 41.25285 28.72794 552 ft 134 kts 357°
2026-05-04 23:55 41.27084 28.72749 333 ft 102 kts 358°
2026-05-04 23:56 41.27551 28.72750 334 ft 25 kts 360°
2026-05-04 23:56 41.27594 28.72748 333 ft 5 kts 358°
2026-05-04 23:56 41.27693 28.72746 330 ft 25 kts 359°
2026-05-04 23:56 41.27876 28.72750 329 ft 27 kts
2026-05-04 23:57 41.28057 28.72827 332 ft 28 kts 29°
2026-05-04 23:57 41.28134 28.72893 331 ft 0 kts 55°
2026-05-04 23:57 41.28138 28.72905 334 ft 2 kts 68°
2026-05-04 23:57 41.28132 28.72935 331 ft 5 kts 121°
2026-05-04 23:58 41.28097 28.72956 334 ft 7 kts 171°
2026-05-04 23:58 41.28041 28.72962 332 ft 9 kts 176°
2026-05-04 23:58 41.27967 28.72964 331 ft 12 kts 179°
2026-05-04 23:58 41.27875 28.72966 331 ft 15 kts 179°
2026-05-04 23:59 41.27763 28.72968 334 ft 17 kts 179°
2026-05-04 23:59 41.27643 28.72973 330 ft 16 kts 169°
2026-05-04 23:59 41.27565 28.73083 331 ft 18 kts 148°
2026-05-04 23:59 41.27435 28.73095 330 ft 20 kts 179°
2026-05-05 00:00 41.27283 28.73095 331 ft 23 kts 179°
2026-05-05 00:00 41.27176 28.73098 333 ft 21 kts 178°
2026-05-05 00:00 41.27130 28.73243 331 ft 15 kts 93°
2026-05-05 00:00 41.27059 28.73330 329 ft 16 kts 178°
2026-05-05 00:01 41.26961 28.73382 334 ft 17 kts 110°
2026-05-05 00:01 41.26961 28.73556 334 ft 20 kts 88°
2026-05-05 00:01 41.26964 28.73756 334 ft 23 kts 90°
2026-05-05 00:01 41.26901 28.73887 330 ft 17 kts 144°
2026-05-05 00:02 41.26792 28.73944 332 ft 19 kts 177°
2026-05-05 00:02 41.26650 28.73951 334 ft 22 kts 178°
2026-05-05 00:02 41.26543 28.74013 332 ft 17 kts 149°
2026-05-05 00:02 41.26424 28.74000 330 ft 18 kts 227°
2026-05-05 00:03 41.26394 28.73900 331 ft 7 kts 245°
2026-05-05 00:03 41.26371 28.73839 331 ft 4 kts 242°
2026-05-05 00:03 41.26369 28.73834 332 ft 0 kts 243°